Regional Weather Roundup
Issued by NWS

Home | Current Version | Previous Version | Text Only | Print | Product List | Glossary On
Versions: 1 2 3 4 5 6 7 8 9 10 11 12 13 14 15 16 17 18 19 20 21 22 23 24 25 26 27 28 29 30 31 32 33 34 35 36 37 38 39 40 41 42 43 44 45 46 47 48 49 50
000
ASUS44 KFWD 242015
RWRTX
NORTH TEXAS HOURLY WEATHER ROUNDUP
NATIONAL WEATHER SERVICE FORT WORTH TX
300 PM CDT SUN MAY 24 2015

NOTE: "FAIR" INDICATES FEW OR NO CLOUDS BELOW 12,000 FEET WITH NO
SIGNIFICANT WEATHER AND/OR OBSTRUCTIONS TO VISIBILITY.

TXZ118-119-242100-
DALLAS/FORT WORTH METROPLEX

CITY           SKY/WX    TMP DP  RH WIND       PRES   REMARKS
DFW AIRPORT    CLOUDY    72  66  81 S20       29.85F
DALLAS LOVE    CLOUDY    75  66  73 S17       29.85F
FTW MEACHAM    LGT RAIN  71  65  81 S13       29.85F
DAL-EXECUTIVE  LGT RAIN  70  67  90 SE8       29.86F
FTW-ALLIANCE   CLOUDY    73  64  73 S12G22    29.85S
FTW-NAS-JRB    LGT RAIN  71  67  87 MISG      29.85F
FTW-SPINKS     CLOUDY    72  66  83 SE14      29.88F
ARLINGTON      LGT RAIN  73  65  75 S10G23    29.86F
MESQUITE         N/A     73  70  88 S9        29.89F
LANCASTER      CLOUDY    72  66  83 SW7       29.89F
$$

TXZ091>094-102>105-117-120-121-131>134-242100-
NORTH CENTRAL TEXAS

CITY           SKY/WX    TMP DP  RH WIND       PRES   REMARKS
SHRMAN/DENISON CLOUDY    74  69  85 CALM      29.86F
GAINESVILLE    CLOUDY    73  66  77 S7        29.88R
BOWIE          CLOUDY    73  67  82 S8        29.85F
BRIDGEPORT     CLOUDY    73  65  75 SW9       29.88S
DECATUR        CLOUDY    72  62  72 SW10      29.86F
DENTON         CLOUDY    73  65  75 SW9       29.85S
MCKINNEY       LGT RAIN  73  66  78 S14       29.84F
GREENVILLE     LGT RAIN  72  68  88 S9        29.89S
ROCKWALL       CLOUDY    73  70  91 S8        29.88F
TERRELL        CLOUDY    71  68  90 SW13      29.90S
WAXAHACHIE     DRIZZLE   71  70  98 S6        29.89F
CLEBURNE       CLOUDY    72  70  94 S9        29.90F
GRANBURY       PTSUNNY   75  66  73 S10       29.88F
$$

TXZ083>090-098>101-113>116-127>130-139>142-154-155-242100-
WESTERN NORTH TEXAS

CITY           SKY/WX    TMP DP  RH WIND       PRES   REMARKS
WICHITA FALLS  CLOUDY    77  67  71 S13       29.83S
WF-KICKAPOO    CLOUDY    77  66  68 S10       29.85S
VERNON         PTSUNNY   78  62  57 S9        29.82F
ABILENE        MOSUNNY   80  64  58 S18       29.86F
ABILENE-DYESS  MOSUNNY   80  59  47 S15       29.84F
BRECKENRIDGE   MOSUNNY   80  61  52 SW10G17   29.85S
GRAHAM         MOSUNNY   77  65  65 S7        29.83F
MINERAL WELLS  PTSUNNY   76  63  64 S13       29.83F
STEPHENVILLE   PTSUNNY   73  63  72 S5        29.90F
COMANCHE       PTSUNNY   76  66  71 S14       29.89F
BROWNWOOD      PTSUNNY   75  64  69 SE10G18   29.88F
COLEMAN        CLOUDY    77  66  70 S8G17     29.88F
BRADY          PTSUNNY   75  64  69 SE8       29.88F
$$

TXZ143>147-156>162-174-175-242100-
CENTRAL TEXAS

CITY           SKY/WX    TMP DP  RH WIND       PRES   REMARKS
WACO           CLOUDY    73  66  78 SW5       29.90F
WACO-TSTC      CLOUDY   N/A N/A N/A SW5       29.90F
WACO-MCGREGOR  CLOUDY    75  64  69 CALM      29.90F
HILLSBORO      CLOUDY    72  64  76 S5        29.89F
CORSICANA      CLOUDY    77  68  73 SW9       29.90F
MEXIA          CLOUDY    74  68  81 SW13      29.89F
HEARNE         CLOUDY    77  70  77 S6        29.90F
CAMERON        CLOUDY    77  70  79 S6        29.89F
TEMPLE         CLOUDY    75  66  73 S12       29.88F
KILLEEN        PTSUNNY   75  68  78 S8        29.88F
KILLEEN-SKYLRK PTSUNNY   75  66  73 S10       29.89F
FORT HOOD      CLOUDY    75  68  78 SE9       29.88F
GATESVILLE     PTSUNNY   73  66  78 CALM      29.92F
HAMILTON       PTSUNNY   75  66  73 SE13      29.90F
LAMPASAS       CLOUDY    76  69  79 SE5       29.89F
$$

TXZ095>097-106>112-122>126-135>138-148>153-164>167-242100-
EAST TEXAS

CITY           SKY/WX    TMP DP  RH WIND       PRES   REMARKS
PARIS          CLOUDY    72  66  83 SW15      29.88S
SULPHUR SPRNGS CLOUDY    75  69  79 SW20G25   29.91S
MOUNT PLEASANT CLOUDY    75  69  82 S13       29.90F
GILMER         CLOUDY    75  69  79 S12G17    29.90F
MINEOLA        CLOUDY    75  70  83 S12       29.90F
TYLER          CLOUDY    72  68  87 S14       29.90F
LONGVIEW       CLOUDY    76  67  73 S12       29.91F
MARSHALL       CLOUDY    78  71  77 S9G21     29.95S
ATHENS         CLOUDY    73  68  83 SW7       29.89F
PALESTINE      CLOUDY    74  70  85 S5        29.92F
JACKSONVILLE   CLOUDY    74  69  81 S8        29.94F
HENDERSON      CLOUDY    75  68  77 SW8       29.92F
NACOGDOCHES    CLOUDY    73  68  83 S10       29.93F
LUFKIN         CLOUDY    76  68  76 S9        29.94S
$$

SUPPLEMENTAL OBSERVATIONS (CENTRAL)

CITY           SKY/WX    TMP DP  RH WIND       PRES   REMARKS
LAKE TEXOMA      N/A     72  66  83 E1          N/A
CADDO GRASSLND   N/A     73  70  88 E2          N/A
PAT MAYSE LAKE   N/A     66  64  94 N3          N/A
GREENVILLE       N/A     73  68  83 SW6G16      N/A
CEDAR HILL       N/A     70  64  83 S9          N/A
ATHENS           N/A     75  66  73 SW5G14      N/A
LAKE LIMESTONE   N/A     79  68  69 S12         N/A
MCGREGOR         N/A     75  66  73 SW3         N/A
TEMPLE           N/A     79  70  73 S12         N/A
$$

SUPPLEMENTAL OBSERVATIONS (WEST)

CITY           SKY/WX    TMP DP  RH WIND       PRES   REMARKS
MILLERS CREEK    N/A     81  63  54 S13         N/A
POSSUM KINGDOM   N/A     79  63  57 S8G16       N/A
LBJ GRASSLAND    N/A     75  66  73 S7G16       N/A
GRANBURY         N/A     75  66  73 S10         N/A
COMANCHE         N/A     75  63  64 SE12G21     N/A
HAMBY            N/A    N/A N/A N/A S15         N/A
IVIE RESERVOIR   N/A     81  64  57 S10G20      N/A
COLORADO BEND    N/A     75  66  73 S8          N/A
$$

SUPPLEMENTAL OBSERVATIONS (EAST)

CITY           SKY/WX    TMP DP  RH WIND       PRES   REMARKS
CLARKSVILLE      N/A     73  72  94 SW6G20      N/A
TEXARKANA        N/A     75  68  78 S7G18       N/A
LINDEN           N/A     75  68  78 S7          N/A
CADDO LAKE       N/A     79  68  69 SW5G13      N/A
GILMER           N/A     77  68  73 S8G17       N/A
HENDERSON        N/A     75  66  73 S10G22      N/A
LUFKIN           N/A     73  66  78 MISG        N/A
N SABINE NF      N/A     73  68  83 MISG        N/A
S SABINE NF      N/A     72  68  88 CALM        N/A
$$

SUPPLEMENTAL OBSERVATIONS ARE A COLLECTION OF AUTOMATED INSTRUMENTS
THAT ARE MAINTAINED BY A VARIETY OF FEDERAL AND STATE AGENCIES.
CERTAIN ELEMENTS...SUCH AS HUMIDITY VALUES AND SUSTAINED WIND
SPEEDS...MAY BE APPROXIMATED.




USA.gov is the U.S. government's official web portal to all federal, state and local government web resources and services.